Regional Weather Roundup
Issued by NWS

Home | Current Version | Previous Version | Graphics & Text | Print | Product List | Glossary On
Versions: 1 2 3 4 5 6 7 8 9 10 11 12 13 14 15 16 17 18 19 20 21 22 23 24 25 26 27 28 29 30 31 32 33 34 35 36 37 38 39 40 41 42 43 44 45 46 47 48 49 50
000
ASUS43 KIND 231559
RWRIN

WEATHER ROUNDUP FOR INDIANA
NATIONAL WEATHER SERVICE INDIANAPOLIS IN
1100 AM EST FRI FEB 23 2018

NOTE: "FAIR" INDICATES FEW OR NO CLOUDS BELOW 12,000 FEET WITH NO
SIGNIFICANT WEATHER AND/OR OBSTRUCTIONS TO VISIBILITY.

* - STATION DOES NOT REPORT WEATHER SUCH AS PRECIPITATION OR FOG.

+ - STATION NOT QUALITY CONTROLLED BY THE NATIONAL WEATHER SERVICE.
    USE DATA WITH CAUTION...ESPECIALLY DEWPOINT AND RELATIVE
    HUMIDITY OBSERVATIONS.

INZ001>003-010>013-019-020-231700-
NORTHWEST INDIANA

CITY           SKY/WX    TMP DP  RH WIND       PRES   REMARKS
GARY /AIRPORT/ CLOUDY    45  45 100 SW20      30.13R
MONTICELLO +   CLOUDY    47  46  95 SW10      30.14S
RENSSELAER +   CLOUDY    46  43  87 W18G24    30.15R

$$

LMZ046-743>745-231700-
SOUTHERN LAKE MICHIGAN

STATION/POSITION TIME  TEMP    WIND        PRES    WAVE
                       AIR SEA DIR/SP/G            HT
                 (UTC) (F)     (DEG/KT/KT) (MB)    (FT)
BURNS HARBOR     1540   44     230/ 13/ 18 1020.3R
MICHIGAN CITY    1530   44     210/ 19/ 22   N/A

$$

INZ004-005-014>016-021>024-231700-
NORTH CENTRAL INDIANA

CITY           SKY/WX    TMP DP  RH WIND       PRES   REMARKS
ELKHART        CLOUDY    41  41 100 SW5       30.11F
GOSHEN         CLOUDY    45  43  93 S12       30.10F
PERU/GRISSOM   CLOUDY    49  49 100 W14G24    30.15R
SOUTH BEND     CLOUDY    43  42  97 SW13      30.11F
WARSAW +       CLOUDY    45  45 100 SW5       30.12R

$$

INZ006>009-017-018-025>027-231700-
NORTHEAST INDIANA

CITY           SKY/WX    TMP DP  RH WIND       PRES   REMARKS
AUBURN +       CLOUDY    41  41 100 S3        30.13S FOG
FORT WAYNE     FOG       46  45  96 SW8       30.14S VSB 1
KENDALLVILLE + CLOUDY    44  44 100 SW9G16    30.12S

$$

INZ028-029-035-036-043>045-051>053-231700-
WEST CENTRAL INDIANA

CITY           SKY/WX    TMP DP  RH WIND       PRES   REMARKS
GREENCASTLE +  CLOUDY    50  48  93 SW6       30.22R
LAFAYETTE      CLOUDY    48  47  96 W9        30.18R
TERRE HAUTE    CLOUDY    51  49  92 SW8       30.24R

$$

INZ030>032-037>040-046>048-054>057-064-065-231700-
CENTRAL INDIANA

CITY           SKY/WX    TMP DP  RH WIND       PRES   REMARKS
ANDERSON       CLOUDY    54  52  94 W12G17    30.20R VSB 1
COLUMBUS       LGT RAIN  57 N/A N/A SW9       30.22R FOG
GREENWOOD *+   CLOUDY    53 -40   2 W13G20    30.21R
INDIANAPOLIS   CLOUDY    54  53  97 W14       30.20S
-EAGLE CREEK   CLOUDY    54  51  90 SW9       30.19S
KOKOMO +       CLOUDY    50  48  93 SW16      30.16S
MT COMFORT *+  CLOUDY    54  54 100 W14       30.20R
SHELBYVILLE    LGT RAIN  57  55  93 SW10      30.20R FOG

$$

INZ033-034-041-042-049-050-058-059-231700-
EAST CENTRAL INDIANA

CITY           SKY/WX    TMP DP  RH WIND       PRES   REMARKS
MUNCIE         CLOUDY    55  52  89 W18G24    30.18R FOG
RICHMOND +     LGT RAIN  55  55 100 SW17      30.19R

$$

INZ060-061-067>069-081>083-085>088-231700-
SOUTHWEST INDIANA

CITY           SKY/WX    TMP DP  RH WIND       PRES   REMARKS
EVANSVILLE     CLOUDY    53  52  96 VRB6      30.30R FOG
HUNTINGBURG +  LGT RAIN  55  54  96 W13       30.29R FOG

$$

INZ062-063-066-070>080-084-089>092-231700-
SOUTH CENTRAL AND SOUTHEAST INDIANA

CITY           SKY/WX    TMP DP  RH WIND       PRES   REMARKS
BLOOMINGTON    CLOUDY    55  53  93 SW9       30.23R
FRENCH LICK *+ CLOUDY    59 N/A N/A SW9       30.27R
SEYMOUR +      CLOUDY    61  61 100 SW7       30.23R FOG

$$




USA.gov is the U.S. government's official web portal to all federal, state and local government web resources and services.